STARLINK-5119 (53986 NORAD) Tracking and Keplerian Element Data

This shows tracking and keplerian element data for the satellite.

Feedback or suggestion? Click here.




ElementValue
Catalog53986
NameSTARLINK-5119
Epoch Orbit768
Epoch Day325.25001157
Epoch Year2022
RAAN222.2538
Inclination53.215
Eccentricity0.0001587
Argument of Perigee57.9366
Mean Anonmoly9.5166
Mean Motion15.73222318
Decay Rate-0.00030739
L11 53986U 22125Y 22325.25001157 -.00030739 00000+0 -21518-3 0 9991
L22 53986 53.2150 222.2538 0001587 57.9366 9.5166 15.73222318 7682



Live tracking and technical data element details for STARLINK-5119 (NORAD 53986). STARLINK-5119 can be tracked NOW for your location showing map with azimuth and elevation plus other details from your city location.







IsCatalogInMostPopularTable: catalog: 53986, numindb: 3
Update: records affected: 1



GetName: 53986 STARLINK-5119

Hit Count: updated at: Mon, 28 Nov 2022 21:50:57 GMT